EW2118 Weather Reports


time (UTC)temp
C
wind
direction
speed
KPH
gust
KPH
rain 1hr
cm
rain 24hr
cm
rain mn
cm
humidity
%
barometer
mb
20260507160004 12 38 17.7 33.8 0.00 0.00 0.00 27 1010.8
20260507155804 12 37 25.7 33.8 0.00 0.00 0.00 27 1010.8
20260507155604 13 39 20.9 32.2 0.00 0.00 0.00 27 1010.7
20260507155404 13 39 19.3 32.2 0.00 0.00 0.00 28 1010.8
20260507155225 13 39 19.3 30.6 0.00 0.00 0.00 28 1010.7
20260507155004 13 40 22.5 30.6 0.00 0.00 0.00 27 1010.7
20260507154804 13 40 20.9 27.4 0.00 0.00 0.00 28 1010.6
20260507154604 12 37 22.5 27.4 0.00 0.00 0.00 27 1010.7
20260507154404 12 34 17.7 27.4 0.00 0.00 0.00 27 1010.7
20260507154204 12 34 16.1 24.1 0.00 0.00 0.00 27 1010.8
20260507154004 13 36 17.7 24.1 0.00 0.00 0.00 28 1010.9
20260507153825 13 38 12.9 24.1 0.00 0.00 0.00 28 1010.9
20260507153625 13 42 14.5 20.9 0.00 0.00 0.00 27 1010.9
20260507153404 13 48 11.3 20.9 0.00 0.00 0.00 28 1010.9
20260507153204 13 53 12.9 20.9 0.00 0.00 0.00 28 1010.9
20260507153025 13 59 11.3 22.5 0.00 0.00 0.00 30 1010.9
20260507152804 12 60 9.7 22.5 0.00 0.00 0.00 28 1010.8
20260507152604 12 61 12.9 22.5 0.00 0.00 0.00 27 1010.8
20260507152404 13 62 14.5 22.5 0.00 0.00 0.00 27 1010.7
20260507152204 13 57 16.1 22.5 0.00 0.00 0.00 28 1010.8
20260507152004 13 54 14.5 22.5 0.00 0.00 0.00 28 1010.7
20260507151804 13 50 9.7 20.9 0.00 0.00 0.00 28 1010.8
20260507151604 12 50 14.5 20.9 0.00 0.00 0.00 28 1010.8
20260507151404 12 52 16.1 22.5 0.00 0.00 0.00 28 1010.8
20260507151204 12 55 12.9 22.5 0.00 0.00 0.00 31 1010.9
20260507151004 12 52 8.0 22.5 0.00 0.00 0.00 29 1010.9
20260507150804 12 53 12.9 22.5 0.00 0.00 0.00 28 1011.0
20260507150604 12 52 12.9 22.5 0.00 0.00 0.00 28 1011.0
20260507150404 12 49 9.7 24.1 0.00 0.00 0.00 29 1011.1
20260507150204 12 47 12.9 24.1 0.00 0.00 0.00 30 1011.1
20260507150005 12 47 14.5 24.1 0.00 0.00 0.00 30 1011.1
20260507145804 12 48 12.9 24.1 0.00 0.00 0.00 28 1011.1
20260507145604 12 47 16.1 24.1 0.00 0.00 0.00 29 1011.1
20260507145404 12 45 17.7 22.5 0.00 0.00 0.00 29 1011.1
20260507145225 12 42 14.5 20.9 0.00 0.00 0.00 29 1011.1
20260507145004 12 39 14.5 20.9 0.00 0.00 0.00 28 1011.1
20260507144804 12 35 14.5 20.9 0.00 0.00 0.00 29 1011.2
20260507144604 12 32 11.3 14.5 0.00 0.00 0.00 28 1011.2
20260507144425 12 26 11.3 14.5 0.00 0.00 0.00 27 1011.1
20260507144204 12 16 11.3 20.9 0.00 0.00 0.00 27 1011.1
20260507144004 12 9 8.0 20.9 0.00 0.00 0.00 27 1011.1
20260507143825 12 3 8.0 20.9 0.00 0.00 0.00 28 1011.2
20260507143604 12 359 6.4 20.9 0.00 0.00 0.00 28 1011.1
20260507143404 12 360 9.7 20.9 0.00 0.00 0.00 28 1011.1
20260507143204 11 2 9.7 19.3 0.00 0.00 0.00 29 1011.1
20260507143004 11 3 8.0 19.3 0.00 0.00 0.00 28 1011.1
20260507142804 11 1 8.0 19.3 0.00 0.00 0.00 28 1011.1
20260507142604 11 1 9.7 19.3 0.00 0.00 0.00 28 1011.0
20260507142004 11 347 8.0 22.5 0.00 0.00 0.00 29 1011.0
20260507141825 11 349 9.7 22.5 0.00 0.00 0.00 29 1011.0
20260507141604 11 349 9.7 20.9 0.00 0.00 0.00 29 1011.0
20260507141404 11 350 9.7 14.5 0.00 0.00 0.00 28 1011.0
20260507141204 11 347 8.0 12.9 0.00 0.00 0.00 27 1011.1
20260507141025 11 344 8.0 12.9 0.00 0.00 0.00 30 1011.0
20260507140804 11 332 8.0 11.3 0.00 0.00 0.00 30 1011.0
20260507140604 11 317 4.8 11.3 0.00 0.00 0.00 29 1010.8
20260507140404 11 303 3.2 11.3 0.00 0.00 0.00 30 1010.8
20260507140204 11 299 6.4 11.3 0.00 0.00 0.00 30 1010.8
20260507140004 11 295 4.8 11.3 0.00 0.00 0.00 30 1010.9
20260507135804 11 293 4.8 11.3 0.00 0.00 0.00 31 1010.8
20260507135604 11 296 6.4 11.3 0.00 0.00 0.00 31 1010.9
20260507135425 11 298 4.8 11.3 0.00 0.00 0.00 31 1010.9
20260507135204 10 296 6.4 11.3 0.00 0.00 0.00 32 1010.9
20260507135004 10 295 4.8 11.3 0.00 0.00 0.00 32 1010.8
20260507134804 10 296 8.0 11.3 0.00 0.00 0.00 31 1010.8
20260507134625 10 293 4.8 9.7 0.00 0.00 0.00 32 1010.8
20260507134404 10 295 4.8 9.7 0.00 0.00 0.00 33 1010.8
20260507134204 10 297 4.8 9.7 0.00 0.00 0.00 32 1010.8
20260507134004 10 299 6.4 9.7 0.00 0.00 0.00 32 1010.8
20260507133804 10 304 4.8 9.7 0.00 0.00 0.00 34 1010.7
20260507133604 10 307 4.8 9.7 0.00 0.00 0.00 32 1010.7
20260507133425 10 308 4.8 9.7 0.00 0.00 0.00 32 1010.6
20260507133204 10 305 3.2 9.7 0.00 0.00 0.00 34 1010.6
20260507133025 9 302 4.8 9.7 0.00 0.00 0.00 32 1010.7
20260507132804 9 294 4.8 8.0 0.00 0.00 0.00 34 1010.6
20260507132625 9 289 4.8 11.3 0.00 0.00 0.00 34 1010.7
20260507132405 9 281 3.2 11.3 0.00 0.00 0.00 36 1010.7
20260507132204 9 280 4.8 11.3 0.00 0.00 0.00 34 1010.8
20260507132004 9 281 4.8 11.3 0.00 0.00 0.00 34 1010.7
20260507131804 8 281 6.4 11.3 0.00 0.00 0.00 37 1010.6
20260507131604 8 281 6.4 9.7 0.00 0.00 0.00 37 1010.6
20260507131404 8 284 4.8 9.7 0.00 0.00 0.00 34 1010.6
20260507131204 8 283 6.4 9.7 0.00 0.00 0.00 36 1010.5
20260507131025 8 283 6.4 9.7 0.00 0.00 0.00 36 1010.5
20260507130805 8 282 4.8 9.7 0.00 0.00 0.00 36 1010.5
20260507130604 8 281 6.4 9.7 0.00 0.00 0.00 36 1010.3
20260507130404 7 282 4.8 11.3 0.00 0.00 0.00 37 1010.4
20260507130225 7 283 4.8 11.3 0.00 0.00 0.00 38 1010.4
20260507130004 7 283 8.0 11.3 0.00 0.00 0.00 38 1010.4
20260507125804 7 285 6.4 12.9 0.00 0.00 0.00 37 1010.4
20260507125604 7 285 8.0 12.9 0.00 0.00 0.00 38 1010.3
20260507125404 7 283 8.0 14.5 0.00 0.00 0.00 40 1010.4
20260507125204 6 283 6.4 14.5 0.00 0.00 0.00 39 1010.3
20260507125025 6 282 8.0 14.5 0.00 0.00 0.00 39 1010.3
20260507124804 6 280 11.3 14.5 0.00 0.00 0.00 39 1010.2
20260507124625 6 279 11.3 14.5 0.00 0.00 0.00 39 1010.2
20260507124404 6 278 12.9 16.1 0.00 0.00 0.00 40 1010.2
20260507124204 6 276 11.3 16.1 0.00 0.00 0.00 41 1010.1
20260507124004 6 276 12.9 19.3 0.00 0.00 0.00 40 1010.2
20260507123804 5 275 12.9 19.3 0.00 0.00 0.00 40 1010.1
20260507123604 5 274 12.9 19.3 0.00 0.00 0.00 40 1010.1
20260507123404 5 273 12.9 19.3 0.00 0.00 0.00 40 1010.1
20260507123204 5 272 14.5 19.3 0.00 0.00 0.00 40 1010.1
20260507123004 5 271 14.5 19.3 0.00 0.00 0.00 40 1010.0
20260507122804 5 271 14.5 19.3 0.00 0.00 0.00 41 1009.9
20260507122625 5 272 14.5 19.3 0.00 0.00 0.00 41 1009.9
20260507122404 5 274 14.5 19.3 0.00 0.00 0.00 40 1009.9
20260507122204 5 277 14.5 19.3 0.00 0.00 0.00 40 1009.8
20260507122004 5 279 14.5 19.3 0.00 0.00 0.00 41 1009.9
20260507121804 4 282 14.5 19.3 0.00 0.00 0.00 42 1009.9
20260507121604 4 283 14.5 19.3 0.00 0.00 0.00 42 1009.8
20260507121404 4 283 14.5 19.3 0.00 0.00 0.00 42 1009.8
20260507121204 4 281 14.5 19.3 0.00 0.00 0.00 42 1009.8
20260507121004 4 279 12.9 16.1 0.00 0.00 0.00 42 1009.7
20260507120804 4 276 12.9 16.1 0.00 0.00 0.00 42 1009.7
20260507120604 4 273 12.9 19.3 0.00 0.00 0.00 42 1009.7
20260507120404 3 270 12.9 19.3 0.00 0.00 0.00 42 1009.7
20260507120204 3 269 12.9 19.3 0.00 0.00 0.00 42 1009.8
20260507120004 3 267 14.5 19.3 0.00 0.00 0.00 42 1009.7
20260507115804 3 266 14.5 19.3 0.00 0.00 0.00 42 1009.8
20260507115604 3 267 14.5 19.3 0.00 0.00 0.00 42 1009.7
20260507115404 3 268 14.5 19.3 0.00 0.00 0.00 42 1009.7
20260507115204 3 268 12.9 19.3 0.00 0.00 0.00 42 1009.6
20260507115004 3 270 12.9 19.3 0.00 0.00 0.00 42 1009.6
20260507114804 3 273 12.9 19.3 0.00 0.00 0.00 41 1009.7
20260507114604 3 274 12.9 19.3 0.00 0.00 0.00 41 1009.6
20260507114404 3 275 12.9 19.3 0.00 0.00 0.00 41 1009.5
20260507114204 3 277 14.5 16.1 0.00 0.00 0.00 41 1009.6
20260507114004 3 279 12.9 16.1 0.00 0.00 0.00 41 1009.5
20260507113825 4 281 11.3 16.1 0.00 0.00 0.00 40 1009.5
20260507113625 4 281 11.3 16.1 0.00 0.00 0.00 40 1009.4
20260507113425 4 282 12.9 16.1 0.00 0.00 0.00 40 1009.4
20260507113204 4 280 14.5 16.1 0.00 0.00 0.00 40 1009.3
20260507113025 4 278 14.5 16.1 0.00 0.00 0.00 40 1009.4
20260507112804 4 277 12.9 14.5 0.00 0.00 0.00 39 1009.4
20260507112604 4 276 11.3 14.5 0.00 0.00 0.00 39 1009.3
20260507112404 4 276 11.3 14.5 0.00 0.00 0.00 39 1009.3
20260507112225 4 278 11.3 14.5 0.00 0.00 0.00 38 1009.3
20260507112025 4 278 12.9 14.5 0.00 0.00 0.00 39 1009.4
20260507111804 5 278 12.9 14.5 0.00 0.00 0.00 38 1009.4
20260507111625 5 278 12.9 14.5 0.00 0.00 0.00 38 1009.4
20260507111404 5 276 12.9 14.5 0.00 0.00 0.00 38 1009.4
20260507111225 5 274 11.3 14.5 0.00 0.00 0.00 38 1009.3
20260507111004 5 271 11.3 16.1 0.00 0.00 0.00 38 1009.3
20260507110804 5 269 12.9 16.1 0.00 0.00 0.00 37 1009.3
20260507110604 5 266 11.3 16.1 0.00 0.00 0.00 37 1009.3
20260507110404 5 263 11.3 16.1 0.00 0.00 0.00 37 1009.3
20260507110204 5 261 11.3 16.1 0.00 0.00 0.00 37 1009.3
20260507110004 5 259 11.3 14.5 0.00 0.00 0.00 37 1009.3
20260507105804 5 258 11.3 16.1 0.00 0.00 0.00 37 1009.3
20260507105609 5 257 11.3 16.1 0.00 0.00 0.00 37 1009.2
20260507105404 5 257 11.3 16.1 0.00 0.00 0.00 37 1009.3
20260507105225 5 256 11.3 16.1 0.00 0.00 0.00 37 1009.3
20260507105004 5 257 11.3 16.1 0.00 0.00 0.00 37 1009.2
20260507104804 5 257 11.3 14.5 0.00 0.00 0.00 37 1009.2
20260507104604 5 258 9.7 14.5 0.00 0.00 0.00 37 1009.1
20260507104404 5 260 11.3 16.1 0.00 0.00 0.00 37 1009.2
20260507104204 5 263 11.3 16.1 0.00 0.00 0.00 38 1009.2
20260507104025 5 265 11.3 16.1 0.00 0.00 0.00 38 1009.2
20260507103804 5 269 12.9 16.1 0.00 0.00 0.00 38 1009.2
20260507103604 5 273 12.9 16.1 0.00 0.00 0.00 38 1009.1
20260507103404 5 276 12.9 16.1 0.00 0.00 0.00 38 1009.2
20260507103204 5 278 12.9 16.1 0.00 0.00 0.00 38 1009.1
20260507103004 5 281 12.9 19.3 0.00 0.00 0.00 38 1009.1
20260507102804 5 283 12.9 19.3 0.00 0.00 0.00 38 1009.1
20260507102604 5 283 14.5 19.3 0.00 0.00 0.00 38 1009.1
20260507102404 5 284 12.9 19.3 0.00 0.00 0.00 37 1009.1
20260507102204 5 284 14.5 19.3 0.00 0.00 0.00 37 1009.2
20260507102004 5 284 12.9 19.3 0.00 0.00 0.00 38 1009.1
20260507101804 5 284 12.9 19.3 0.00 0.00 0.00 37 1009.1
20260507101604 5 284 14.5 19.3 0.00 0.00 0.00 37 1009.2
20260507101404 5 284 14.5 19.3 0.00 0.00 0.00 38 1009.2
20260507101225 5 284 14.5 19.3 0.00 0.00 0.00 38 1009.2
20260507101025 5 284 14.5 16.1 0.00 0.00 0.00 38 1009.2
20260507100804 5 284 12.9 16.1 0.00 0.00 0.00 37 1009.2
20260507100604 5 284 14.5 16.1 0.00 0.00 0.00 38 1009.2
20260507100404 5 284 14.5 16.1 0.00 0.00 0.00 38 1009.2
20260507100204 5 284 14.5 16.1 0.00 0.00 0.00 38 1009.1
20260507100004 5 285 12.9 14.5 0.00 0.00 0.00 38 1009.1
20260507095804 5 285 9.7 14.5 0.00 0.00 0.00 38 1009.2
20260507095604 5 283 11.3 16.1 0.00 0.00 0.00 38 1009.2
20260507095404 5 283 11.3 19.3 0.00 0.00 0.00 38 1009.1
20260507095204 5 283 12.9 19.3 0.00 0.00 0.00 38 1009.2
20260507095004 5 282 12.9 19.3 0.00 0.00 0.00 38 1009.2
20260507094804 5 282 14.5 19.3 0.00 0.00 0.00 38 1009.2
20260507094604 5 283 14.5 19.3 0.00 0.00 0.00 38 1009.2
20260507094404 5 282 14.5 19.3 0.00 0.00 0.00 38 1009.2
20260507094204 5 282 14.5 19.3 0.00 0.00 0.00 38 1009.2
20260507094005 5 282 14.5 19.3 0.00 0.00 0.00 38 1009.1
20260507093825 5 281 14.5 19.3 0.00 0.00 0.00 38 1009.2
20260507093604 5 280 14.5 19.3 0.00 0.00 0.00 38 1009.1
20260507093404 5 280 14.5 19.3 0.00 0.00 0.00 38 1009.1
20260507093225 5 279 14.5 19.3 0.00 0.00 0.00 38 1009.1
20260507093004 5 279 14.5 19.3 0.00 0.00 0.00 38 1009.1
20260507092804 5 278 14.5 19.3 0.00 0.00 0.00 38 1008.9
20260507092604 4 277 14.5 19.3 0.00 0.00 0.00 38 1008.9
20260507092404 4 276 14.5 20.9 0.00 0.00 0.00 38 1008.9
20260507092204 4 275 16.1 20.9 0.00 0.00 0.00 38 1009.0
20260507092004 4 275 16.1 20.9 0.00 0.00 0.00 38 1009.0
20260507091804 4 276 16.1 20.9 0.00 0.00 0.00 38 1008.9
20260507091604 4 276 16.1 20.9 0.00 0.00 0.00 38 1009.0
20260507091404 4 275 14.5 20.9 0.00 0.00 0.00 38 1009.0
20260507091225 4 275 14.5 20.9 0.00 0.00 0.00 38 1008.9
20260507091025 4 275 14.5 20.9 0.00 0.00 0.00 38 1008.9
20260507090804 4 275 16.1 19.3 0.00 0.00 0.00 38 1008.9
20260507090604 4 275 16.1 20.9 0.00 0.00 0.00 38 1008.9
20260507090425 4 276 16.1 20.9 0.00 0.00 0.00 38 1008.9
20260507090204 4 277 16.1 20.9 0.00 0.00 0.00 39 1008.9
20260507090004 4 277 16.1 20.9 0.00 0.00 0.00 39 1008.9
20260507085804 4 278 16.1 20.9 0.00 0.00 0.00 39 1008.9
20260507085604 4 279 16.1 20.9 0.00 0.00 0.00 39 1008.9
20260507085404 4 280 14.5 20.9 0.00 0.00 0.00 39 1008.9
20260507085204 4 282 16.1 22.5 0.00 0.00 0.00 38 1008.9
20260507085004 4 283 16.1 22.5 0.00 0.00 0.00 38 1008.8
20260507084804 4 284 16.1 22.5 0.00 0.00 0.00 38 1008.9
20260507084604 4 284 16.1 22.5 0.00 0.00 0.00 38 1008.8
20260507084404 5 285 16.1 22.5 0.00 0.00 0.00 37 1008.8
20260507084204 5 285 16.1 20.9 0.00 0.00 0.00 37 1008.8
20260507084004 5 285 16.1 20.9 0.00 0.00 0.00 37 1008.8
20260507083804 5 286 16.1 20.9 0.00 0.00 0.00 37 1008.8
20260507083604 5 287 14.5 19.3 0.00 0.00 0.00 37 1008.8
20260507083404 5 287 14.5 19.3 0.00 0.00 0.00 37 1008.7
20260507083205 5 286 12.9 19.3 0.00 0.00 0.00 37 1008.7
20260507083004 5 285 11.3 19.3 0.00 0.00 0.00 37 1008.7
20260507082804 5 285 12.9 19.3 0.00 0.00 0.00 37 1008.8
20260507082604 4 284 16.1 19.3 0.00 0.00 0.00 37 1008.8
20260507082404 4 284 14.5 16.1 0.00 0.00 0.00 37 1008.9
20260507082204 4 284 14.5 16.1 0.00 0.00 0.00 37 1008.8
20260507082004 4 282 11.3 16.1 0.00 0.00 0.00 37 1008.8
20260507081804 4 281 12.9 16.1 0.00 0.00 0.00 38 1008.9
20260507081604 4 279 12.9 16.1 0.00 0.00 0.00 38 1008.9
20260507081404 4 279 12.9 16.1 0.00 0.00 0.00 37 1008.9
20260507081204 4 280 14.5 16.1 0.00 0.00 0.00 37 1009.0
20260507081004 5 280 12.9 16.1 0.00 0.00 0.00 37 1008.9
20260507080804 5 279 12.9 16.1 0.00 0.00 0.00 37 1008.9
20260507080604 5 278 12.9 16.1 0.00 0.00 0.00 37 1009.0
20260507080404 5 277 14.5 19.3 0.00 0.00 0.00 37 1009.1
20260507080204 5 276 12.9 19.3 0.00 0.00 0.00 37 1009.1
20260507080004 5 276 14.5 19.3 0.00 0.00 0.00 37 1009.2
20260507075804 5 276 14.5 19.3 0.00 0.00 0.00 36 1009.2
20260507075604 5 274 14.5 19.3 0.00 0.00 0.00 37 1009.2
20260507075404 5 271 14.5 19.3 0.00 0.00 0.00 36 1009.3
20260507075204 5 268 14.5 19.3 0.00 0.00 0.00 36 1009.3
20260507075004 5 264 12.9 19.3 0.00 0.00 0.00 36 1009.3
20260507074804 5 263 9.7 16.1 0.00 0.00 0.00 36 1009.3
20260507074625 5 264 11.3 16.1 0.00 0.00 0.00 36 1009.2
20260507074404 5 265 11.3 19.3 0.00 0.00 0.00 36 1009.4
20260507074204 5 265 12.9 19.3 0.00 0.00 0.00 36 1009.4
20260507074004 5 264 14.5 19.3 0.00 0.00 0.00 36 1009.4
20260507073825 5 262 12.9 19.3 0.00 0.00 0.00 36 1009.3
20260507073604 5 261 14.5 19.3 0.00 0.00 0.00 36 1009.4
20260507073403 5 260 12.9 19.3 0.00 0.00 0.00 37 1009.4
20260507073204 5 260 12.9 19.3 0.00 0.00 0.00 37 1009.3
20260507073004 4 261 12.9 19.3 0.00 0.00 0.00 37 1009.4
20260507072804 4 265 14.5 19.3 0.00 0.00 0.00 37 1009.4
20260507072604 4 269 12.9 19.3 0.00 0.00 0.00 37 1009.4
20260507072404 4 271 12.9 19.3 0.00 0.00 0.00 37 1009.4
20260507072204 4 274 14.5 19.3 0.00 0.00 0.00 38 1009.4
20260507072004 4 277 14.5 19.3 0.00 0.00 0.00 37 1009.3
20260507071825 5 278 16.1 19.3 0.00 0.00 0.00 37 1009.4
20260507071604 5 279 16.1 19.3 0.00 0.00 0.00 37 1009.4
20260507071404 5 278 16.1 19.3 0.00 0.00 0.00 37 1009.4
20260507071225 5 277 16.1 19.3 0.00 0.00 0.00 37 1009.4
20260507071004 5 274 14.5 19.3 0.00 0.00 0.00 37 1009.5
20260507070804 5 271 14.5 16.1 0.00 0.00 0.00 37 1009.5
20260507070604 5 269 14.5 16.1 0.00 0.00 0.00 36 1009.5
20260507070404 5 267 14.5 16.1 0.00 0.00 0.00 36 1009.4
20260507070204 5 264 12.9 16.1 0.00 0.00 0.00 36 1009.5
20260507070025 5 263 12.9 16.1 0.00 0.00 0.00 36 1009.6
20260507065825 5 261 12.9 16.1 0.00 0.00 0.00 36 1009.5
20260507065604 5 259 11.3 14.5 0.00 0.00 0.00 35 1009.5
20260507065425 5 258 9.7 14.5 0.00 0.00 0.00 35 1009.5
20260507065204 5 256 11.3 14.5 0.00 0.00 0.00 35 1009.6
20260507065025 5 255 11.3 14.5 0.00 0.00 0.00 35 1009.7
20260507064804 6 254 11.3 12.9 0.00 0.00 0.00 34 1009.7
20260507064604 6 253 9.7 14.5 0.00 0.00 0.00 34 1009.7
20260507064425 6 252 9.7 14.5 0.00 0.00 0.00 34 1009.6
20260507064204 6 251 9.7 16.1 0.00 0.00 0.00 34 1009.7
20260507064004 6 250 9.7 16.1 0.00 0.00 0.00 34 1009.8
20260507063804 5 249 11.3 16.1 0.00 0.00 0.00 34 1009.7
20260507063604 5 248 11.3 16.1 0.00 0.00 0.00 34 1009.7
20260507063425 5 248 12.9 16.1 0.00 0.00 0.00 34 1009.7
20260507063204 5 249 11.3 12.9 0.00 0.00 0.00 35 1009.7
20260507063004 5 249 9.7 14.5 0.00 0.00 0.00 35 1009.8
20260507062804 5 249 9.7 14.5 0.00 0.00 0.00 35 1009.7
20260507062604 5 250 9.7 20.9 0.00 0.00 0.00 36 1009.7
20260507062404 5 250 9.7 20.9 0.00 0.00 0.00 37 1009.8
20260507062204 5 253 11.3 20.9 0.00 0.00 0.00 37 1009.8
20260507062004 5 255 11.3 20.9 0.00 0.00 0.00 37 1009.9
20260507061804 5 257 14.5 20.9 0.00 0.00 0.00 37 1009.9
20260507061604 5 256 12.9 16.1 0.00 0.00 0.00 38 1009.9
20260507061404 5 252 11.3 19.3 0.00 0.00 0.00 38 1009.9
20260507061225 5 246 11.3 19.3 0.00 0.00 0.00 38 1009.9
20260507061025 5 240 11.3 19.3 0.00 0.00 0.00 38 1010.0
20260507060804 5 232 11.3 19.3 0.00 0.00 0.00 38 1009.9
20260507060604 5 230 12.9 19.3 0.00 0.00 0.00 39 1009.9
20260507060404 5 229 11.3 19.3 0.00 0.00 0.00 39 1009.9
20260507060204 5 230 11.3 19.3 0.00 0.00 0.00 39 1009.9
20260507060004 5 229 12.9 20.9 0.00 0.00 0.00 40 1009.9
20260507055804 5 230 12.9 20.9 0.00 0.00 0.00 40 1009.9
20260507055625 5 229 11.3 20.9 0.00 0.00 0.00 40 1009.9
20260507055404 5 230 11.3 20.9 0.00 0.00 0.00 41 1009.9
20260507055204 5 229 14.5 20.9 0.00 0.00 0.00 41 1010.0
20260507055004 5 228 14.5 19.3 0.00 0.00 0.00 41 1010.0
20260507054804 5 227 12.9 19.3 0.00 0.00 0.00 41 1010.0
20260507054604 5 227 12.9 19.3 0.00 0.00 0.00 41 1010.0
20260507054404 4 227 11.3 19.3 0.00 0.00 0.00 42 1010.0
20260507054204 4 228 11.3 19.3 0.00 0.00 0.00 42 1010.0
20260507054004 5 227 11.3 19.3 0.00 0.00 0.00 42 1009.9
20260507053804 5 227 11.3 19.3 0.00 0.00 0.00 42 1009.9
20260507053603 5 227 9.7 19.3 0.00 0.00 0.00 42 1009.9
20260507053404 5 226 12.9 19.3 0.00 0.00 0.00 42 1009.9
20260507053204 5 225 12.9 19.3 0.00 0.00 0.00 42 1009.9
20260507053004 5 224 12.9 19.3 0.00 0.00 0.00 42 1009.9
20260507052804 5 223 11.3 20.9 0.00 0.00 0.00 42 1009.9
20260507052625 5 223 12.9 20.9 0.00 0.00 0.00 42 1009.9
20260507052404 5 223 12.9 20.9 0.00 0.00 0.00 42 1009.9
20260507052204 5 222 12.9 20.9 0.00 0.00 0.00 42 1009.9
20260507052004 5 223 12.9 20.9 0.00 0.00 0.00 42 1009.9
20260507051804 5 224 12.9 19.3 0.00 0.00 0.00 42 1010.0
20260507051604 5 224 12.9 20.9 0.00 0.00 0.00 42 1009.9
20260507051404 4 223 14.5 20.9 0.00 0.00 0.00 42 1010.0
20260507051204 4 223 12.9 20.9 0.00 0.00 0.00 43 1010.0
20260507051004 4 222 11.3 20.9 0.00 0.00 0.00 43 1010.0
20260507050804 4 222 12.9 20.9 0.00 0.00 0.00 44 1010.0
20260507050625 4 221 11.3 16.1 0.00 0.00 0.00 44 1010.0
20260507050404 4 221 11.3 16.1 0.00 0.00 0.00 44 1010.2
20260507050204 4 221 9.7 14.5 0.00 0.00 0.00 44 1010.1
20260507050004 4 220 9.7 14.5 0.00 0.00 0.00 44 1010.1
20260507045825 4 219 9.7 14.5 0.00 0.00 0.00 44 1010.2
20260507045604 4 218 9.7 16.1 0.00 0.00 0.00 43 1010.2
20260507045425 4 216 9.7 16.1 0.00 0.00 0.00 43 1010.2
20260507045225 4 216 9.7 16.1 0.00 0.00 0.00 43 1010.3
20260507045004 4 216 9.7 16.1 0.00 0.00 0.00 42 1010.2
20260507044804 4 214 11.3 16.1 0.00 0.00 0.00 43 1010.3
20260507044604 4 215 11.3 19.3 0.00 0.00 0.00 42 1010.3
20260507044404 5 216 12.9 19.3 0.00 0.00 0.00 42 1010.2
20260507044204 4 214 9.7 19.3 0.00 0.00 0.00 42 1010.3
20260507044004 4 213 11.3 19.3 0.00 0.00 0.00 42 1010.3
20260507043804 4 214 11.3 19.3 0.00 0.00 0.00 42 1010.3
20260507043604 4 213 11.3 16.1 0.00 0.00 0.00 42 1010.4
20260507043425 4 213 11.3 16.1 0.00 0.00 0.00 43 1010.4
20260507043204 4 213 9.7 16.1 0.00 0.00 0.00 43 1010.4
20260507043004 4 213 11.3 16.1 0.00 0.00 0.00 43 1010.4
20260507042804 4 215 9.7 14.5 0.00 0.00 0.00 43 1010.4
20260507042604 4 214 9.7 14.5 0.00 0.00 0.00 43 1010.5
20260507042404 4 214 9.7 14.5 0.00 0.00 0.00 43 1010.5
20260507042204 4 214 9.7 14.5 0.00 0.00 0.00 43 1010.5
20260507042004 4 214 11.3 14.5 0.00 0.00 0.00 43 1010.6
20260507041804 5 214 9.7 16.1 0.00 0.00 0.00 42 1010.6
20260507041604 5 214 9.7 16.1 0.00 0.00 0.00 42 1010.6
20260507041404 5 213 9.7 16.1 0.00 0.00 0.00 42 1010.7
20260507041204 5 214 9.7 16.1 0.00 0.00 0.00 41 1010.7
20260507041025 5 214 11.3 16.1 0.00 0.00 0.00 41 1010.7
20260507040804 5 216 9.7 16.1 0.00 0.00 0.00 41 1010.8
20260507040625 5 217 9.7 16.1 0.00 0.00 0.00 41 1010.8
20260507040404 5 220 9.7 16.1 0.00 0.00 0.00 40 1010.8
20260507040204 5 224 9.7 16.1 0.00 0.00 0.00 40 1010.8
20260507040004 5 226 9.7 12.9 0.00 0.00 0.00 40 1010.8
20260507035804 5 227 9.7 12.9 0.00 0.00 0.00 40 1010.9
20260507035625 5 226 11.3 14.5 0.00 0.00 0.00 40 1010.9
20260507035404 5 224 9.7 14.5 0.00 0.00 0.00 40 1010.9
20260507035225 5 221 8.0 14.5 0.00 0.00 0.00 40 1010.9
20260507035004 5 220 8.0 14.5 0.00 0.00 0.00 40 1011.0
20260507034804 5 220 9.7 14.5 0.00 0.00 0.00 40 1011.1
20260507034625 5 221 9.7 12.9 0.00 0.00 0.00 40 1011.1
20260507034425 6 220 9.7 14.5 0.00 0.00 0.00 40 1011.1
20260507034204 6 219 8.0 14.5 0.00 0.00 0.00 40 1011.1
20260507034004 6 218 8.0 14.5 0.00 0.00 0.00 40 1011.2
20260507033825 6 217 8.0 14.5 0.00 0.00 0.00 40 1011.2
20260507033604 6 215 9.7 14.5 0.00 0.00 0.00 39 1011.3
20260507033404 6 215 9.7 12.9 0.00 0.00 0.00 39 1011.3
20260507033204 6 215 9.7 12.9 0.00 0.00 0.00 39 1011.3
20260507033004 6 214 8.0 12.9 0.00 0.00 0.00 39 1011.3
20260507032804 6 213 9.7 12.9 0.00 0.00 0.00 39 1011.3
20260507032604 6 214 9.7 14.5 0.00 0.00 0.00 39 1011.3
20260507032425 6 214 8.0 14.5 0.00 0.00 0.00 39 1011.4
20260507032204 6 213 8.0 14.5 0.00 0.00 0.00 38 1011.3
20260507032003 6 213 9.7 14.5 0.00 0.00 0.00 38 1011.4
20260507031804 6 213 9.7 14.5 0.00 0.00 0.00 38 1011.4
20260507031625 6 213 8.0 11.3 0.00 0.00 0.00 38 1011.3
20260507031404 6 213 8.0 9.7 0.00 0.00 0.00 38 1011.4
20260507031225 7 213 8.0 9.7 0.00 0.00 0.00 38 1011.5
20260507031004 7 214 6.4 9.7 0.00 0.00 0.00 37 1011.5
20260507030804 7 214 6.4 9.7 0.00 0.00 0.00 37 1011.5
20260507030604 7 214 6.4 8.0 0.00 0.00 0.00 36 1011.6
20260507030425 7 212 4.8 8.0 0.00 0.00 0.00 36 1011.6
20260507030225 7 206 4.8 8.0 0.00 0.00 0.00 36 1011.6
20260507030004 7 197 4.8 8.0 0.00 0.00 0.00 35 1011.6
20260507025804 7 188 3.2 8.0 0.00 0.00 0.00 35 1011.7
20260507025604 7 181 3.2 8.0 0.00 0.00 0.00 34 1011.6
20260507025404 7 180 4.8 8.0 0.00 0.00 0.00 34 1011.6
20260507025225 7 179 4.8 8.0 0.00 0.00 0.00 34 1011.6
20260507025025 7 178 4.8 8.0 0.00 0.00 0.00 34 1011.5
20260507024804 7 176 4.8 8.0 0.00 0.00 0.00 34 1011.6
20260507024625 7 176 4.8 8.0 0.00 0.00 0.00 34 1011.5
20260507024425 7 174 4.8 8.0 0.00 0.00 0.00 34 1011.6
20260507024204 7 173 6.4 8.0 0.00 0.00 0.00 34 1011.5
20260507024025 7 173 4.8 8.0 0.00 0.00 0.00 34 1011.6
20260507023804 7 172 4.8 8.0 0.00 0.00 0.00 34 1011.6
20260507023604 7 171 4.8 8.0 0.00 0.00 0.00 34 1011.6
20260507023425 7 171 4.8 8.0 0.00 0.00 0.00 34 1011.6
20260507023204 7 168 4.8 8.0 0.00 0.00 0.00 34 1011.6
20260507023004 7 165 6.4 8.0 0.00 0.00 0.00 34 1011.6
20260507022804 7 162 6.4 8.0 0.00 0.00 0.00 33 1011.6
20260507022604 8 157 4.8 8.0 0.00 0.00 0.00 33 1011.6
20260507022404 8 149 3.2 6.4 0.00 0.00 0.00 33 1011.6
20260507022204 8 144 3.2 6.4 0.00 0.00 0.00 33 1011.6
20260507022003 8 137 3.2 6.4 0.00 0.00 0.00 33 1011.7
20260507021804 8 134 3.2 6.4 0.00 0.00 0.00 33 1011.7
20260507021604 8 131 4.8 6.4 0.00 0.00 0.00 33 1011.7
20260507021404 8 131 4.8 6.4 0.00 0.00 0.00 33 1011.7
20260507021204 8 131 4.8 6.4 0.00 0.00 0.00 33 1011.7
20260507021025 8 132 4.8 8.0 0.00 0.00 0.00 33 1011.8
20260507020825 8 132 4.8 8.0 0.00 0.00 0.00 33 1011.7
20260507020604 8 131 4.8 8.0 0.00 0.00 0.00 33 1011.7
20260507020404 8 131 4.8 8.0 0.00 0.00 0.00 33 1011.7
20260507020225 8 130 4.8 8.0 0.00 0.00 0.00 33 1011.7
20260507020004 8 132 6.4 8.0 0.00 0.00 0.00 33 1011.7
20260507015804 8 135 4.8 8.0 0.00 0.00 0.00 33 1011.7
20260507015604 8 139 6.4 8.0 0.00 0.00 0.00 33 1011.7
20260507015404 8 146 4.8 8.0 0.00 0.00 0.00 32 1011.7
20260507015204 8 155 4.8 6.4 0.00 0.00 0.00 32 1011.8
20260507015004 8 153 3.2 6.4 0.00 0.00 0.00 32 1011.8
20260507014825 8 146 3.2 6.4 0.00 0.00 0.00 32 1011.8
20260507014604 8 138 3.2 6.4 0.00 0.00 0.00 32 1011.7
20260507014404 8 130 3.2 6.4 0.00 0.00 0.00 32 1011.7
20260507014204 8 125 4.8 6.4 0.00 0.00 0.00 32 1011.7
20260507014024 8 121 4.8 6.4 0.00 0.00 0.00 32 1011.8
20260507013804 8 118 3.2 6.4 0.00 0.00 0.00 32 1011.8
20260507013604 8 117 3.2 6.4 0.00 0.00 0.00 32 1011.7
20260507013404 8 114 3.2 6.4 0.00 0.00 0.00 32 1011.8
20260507013204 8 112 3.2 6.4 0.00 0.00 0.00 32 1011.8
20260507013004 8 109 3.2 8.0 0.00 0.00 0.00 32 1011.7
20260507012804 8 106 3.2 8.0 0.00 0.00 0.00 32 1011.7
20260507012604 8 105 3.2 8.0 0.00 0.00 0.00 32 1011.8
20260507012404 8 105 3.2 9.7 0.00 0.00 0.00 32 1011.8
20260507012225 8 104 3.2 9.7 0.00 0.00 0.00 32 1011.8
20260507012003 8 107 4.8 9.7 0.00 0.00 0.00 32 1011.7
20260507011804 8 109 4.8 9.7 0.00 0.00 0.00 32 1011.7
20260507011604 8 110 6.4 9.7 0.00 0.00 0.00 32 1011.8
20260507011404 9 112 4.8 8.0 0.00 0.00 0.00 33 1011.8
20260507011204 9 114 4.8 8.0 0.00 0.00 0.00 32 1011.8
20260507011004 9 114 4.8 8.0 0.00 0.00 0.00 32 1011.8
20260507010804 9 118 3.2 8.0 0.00 0.00 0.00 33 1011.8
20260507010604 9 119 1.6 9.7 0.00 0.00 0.00 33 1011.7
20260507010404 9 119 4.8 9.7 0.00 0.00 0.00 32 1011.7
20260507010204 9 121 3.2 9.7 0.00 0.00 0.00 32 1011.7
20260507010004 9 122 4.8 9.7 0.00 0.00 0.00 32 1011.7
20260507005804 9 127 4.8 9.7 0.00 0.00 0.00 32 1011.7
20260507005604 9 135 6.4 9.7 0.00 0.00 0.00 31 1011.7
20260507005404 10 141 3.2 9.7 0.00 0.00 0.00 31 1011.7
20260507005204 10 137 4.8 11.3 0.00 0.00 0.00 30 1011.7
20260507005004 10 133 6.4 11.3 0.00 0.00 0.00 31 1011.7
20260507004804 10 129 6.4 11.3 0.00 0.00 0.00 31 1011.8
20260507004604 10 125 6.4 11.3 0.00 0.00 0.00 31 1011.8
20260507004404 10 123 8.0 11.3 0.00 0.00 0.00 31 1011.8
20260507004204 10 119 6.4 11.3 0.00 0.00 0.00 31 1011.7
20260507004004 10 120 6.4 11.3 0.00 0.00 0.00 31 1011.8
20260507003825 10 114 8.0 11.3 0.00 0.00 0.00 30 1011.9
20260507003604 10 97 6.4 11.3 0.00 0.00 0.00 31 1011.9
20260507003404 10 89 4.8 12.9 0.00 0.00 0.00 30 1011.9
20260507003204 10 90 3.2 12.9 0.00 0.00 0.00 30 1011.9
20260507003004 10 92 6.4 12.9 0.00 0.00 0.00 30 1011.9
20260507002804 10 100 8.0 12.9 0.00 0.00 0.00 29 1011.9
20260507002604 10 116 9.7 12.9 0.00 0.00 0.00 30 1011.9
20260507002425 10 131 6.4 11.3 0.00 0.00 0.00 30 1011.9
20260507002204 10 146 4.8 8.0 0.00 0.00 0.00 30 1012.0
20260507002025 10 149 3.2 8.0 0.00 0.00 0.00 30 1012.0
20260507001804 10 141 3.2 9.7 0.00 0.00 0.00 30 1012.0
20260507001604 10 131 4.8 9.7 0.00 0.00 0.00 30 1012.1
20260507001404 10 123 4.8 11.3 0.00 0.00 0.00 30 1012.2
20260507001204 10 116 3.2 11.3 0.00 0.00 0.00 29 1012.2
20260507001004 10 121 4.8 11.3 0.00 0.00 0.00 30 1012.2
20260507000804 10 111 6.4 12.9 0.00 0.00 0.00 29 1012.3
20260507000604 10 104 6.4 12.9 0.00 0.00 0.00 29 1012.3
20260507000405 10 104 4.8 14.5 0.00 0.00 0.00 30 1012.2
20260507000205 10 103 6.4 14.5 0.00 0.00 0.00 30 1012.3
20260507000004 10 100 6.4 14.5 0.00 0.00 0.00 30 1012.3
20260506235804 10 106 8.0 14.5 0.00 0.00 0.00 30 1012.3
20260506235604 10 110 8.0 14.5 0.00 0.00 0.00 30 1012.3
20260506235425 10 107 4.8 14.5 0.00 0.00 0.00 30 1012.4
20260506235225 10 97 3.2 19.3 0.00 0.00 0.00 29 1012.4
20260506235004 10 88 6.4 19.3 0.00 0.00 0.00 29 1012.5
20260506234804 10 81 9.7 19.3 0.00 0.00 0.00 29 1012.5
20260506234604 10 70 9.7 19.3 0.00 0.00 0.00 29 1012.4
20260506234425 10 62 12.9 19.3 0.00 0.00 0.00 29 1012.5
20260506234204 10 53 11.3 19.3 0.00 0.00 0.00 29 1012.4
20260506234003 10 49 6.4 22.5 0.00 0.00 0.00 30 1012.5
20260506233804 10 49 9.7 22.5 0.00 0.00 0.00 28 1012.5
20260506233604 11 49 9.7 22.5 0.00 0.00 0.00 28 1012.6
20260506233404 11 51 12.9 22.5 0.00 0.00 0.00 28 1012.6
20260506233204 11 52 16.1 22.5 0.00 0.00 0.00 28 1012.6
20260506233025 11 56 14.5 20.9 0.00 0.00 0.00 28 1012.7
20260506232804 11 63 9.7 19.3 0.00 0.00 0.00 29 1012.7
20260506232604 11 65 3.2 12.9 0.00 0.00 0.00 29 1012.7
20260506232403 11 59 1.6 12.9 0.00 0.00 0.00 29 1012.7
20260506232204 11 59 8.0 12.9 0.00 0.00 0.00 28 1012.7
20260506232004 11 55 9.7 12.9 0.00 0.00 0.00 29 1012.7
20260506231825 11 46 8.0 12.9 0.00 0.00 0.00 29 1012.7
20260506231604 11 43 6.4 14.5 0.00 0.00 0.00 28 1012.6
20260506231425 11 44 4.8 14.5 0.00 0.00 0.00 29 1012.7
20260506231225 11 47 4.8 16.1 0.00 0.00 0.00 28 1012.7
20260506231025 11 51 8.0 16.1 0.00 0.00 0.00 29 1012.7
20260506230804 11 54 11.3 16.1 0.00 0.00 0.00 29 1012.7
20260506230625 11 59 11.3 16.1 0.00 0.00 0.00 28 1012.7
20260506230425 11 59 12.9 16.1 0.00 0.00 0.00 29 1012.7
20260506230204 11 66 11.3 14.5 0.00 0.00 0.00 29 1012.7
20260506230004 11 115 3.2 16.1 0.00 0.00 0.00 29 1012.7
20260506225804 11 133 3.2 16.1 0.00 0.00 0.00 29 1012.7
20260506225603 11 130 3.2 20.9 0.00 0.00 0.00 29 1012.8
20260506225404 11 126 1.6 20.9 0.00 0.00 0.00 29 1012.7
20260506225225 11 115 4.8 20.9 0.00 0.00 0.00 30 1012.8
20260506225003 10 97 9.7 20.9 0.00 0.00 0.00 30 1012.7
20260506224804 10 88 11.3 20.9 0.00 0.00 0.00 30 1012.7
20260506224604 10 84 9.7 20.9 0.00 0.00 0.00 30 1012.8
20260506224404 10 85 14.5 22.5 0.00 0.00 0.00 30 1012.8
20260506224204 10 86 14.5 22.5 0.00 0.00 0.00 30 1012.8
20260506224004 11 85 11.3 22.5 0.00 0.00 0.00 29 1012.8
20260506223804 11 85 11.3 22.5 0.00 0.00 0.00 29 1012.8
20260506223604 11 82 14.5 22.5 0.00 0.00 0.00 29 1012.9
20260506223403 11 67 3.2 14.5 0.00 0.00 0.00 28 1012.9
20260506223204 11 63 6.4 9.7 0.00 0.00 0.00 29 1012.9
20260506223004 11 87 6.4 9.7 0.00 0.00 0.00 28 1013.0
20260506222804 11 161 4.8 9.7 0.00 0.00 0.00 29 1013.0
20260506222604 11 196 3.2 14.5 0.00 0.00 0.00 28 1013.0
20260506222404 11 196 1.6 16.1 0.00 0.00 0.00 29 1013.0
20260506222204 11 186 3.2 16.1 0.00 0.00 0.00 28 1013.1
20260506222004 11 181 6.4 16.1 0.00 0.00 0.00 28 1013.1
20260506221803 11 174 8.0 16.1 0.00 0.00 0.00 29 1013.0
20260506221604 11 144 12.9 16.1 0.00 0.00 0.00 29 1013.1
20260506221404 11 106 8.0 16.1 0.00 0.00 0.00 30 1013.1
20260506221204 11 83 4.8 14.5 0.00 0.00 0.00 29 1013.2
20260506221003 11 75 4.8 14.5 0.00 0.00 0.00 28 1013.2
20260506220804 11 82 9.7 14.5 0.00 0.00 0.00 29 1013.3
20260506220603 11 79 4.8 11.3 0.00 0.00 0.00 30 1013.3
20260506220404 10 97 4.8 11.3 0.00 0.00 0.00 29 1013.4
20260506220204 11 108 6.4 11.3 0.00 0.00 0.00 28 1013.4
20260506220025 11 120 3.2 14.5 0.00 0.00 0.00 29 1013.4
20260506215804 11 130 6.4 16.1 0.00 0.00 0.00 28 1013.4
20260506215604 11 142 8.0 20.9 0.00 0.00 0.00 28 1013.4
20260506215425 11 136 6.4 20.9 0.00 0.00 0.00 29 1013.6
20260506215204 11 128 9.7 20.9 0.00 0.00 0.00 29 1013.6
20260506215024 11 115 6.4 20.9 0.00 0.00 0.00 29 1013.5
20260506214825 11 107 12.9 20.9 0.00 0.00 0.00 30 1013.6
20260506214625 11 90 8.0 19.3 0.00 0.00 0.00 29 1013.6
20260506214404 11 92 8.0 16.1 0.00 0.00 0.00 28 1013.6
20260506214204 11 99 9.7 16.1 0.00 0.00 0.00 29 1013.6
20260506214004 11 118 8.0 16.1 0.00 0.00 0.00 29 1013.7
20260506213825 11 127 9.7 16.1 0.00 0.00 0.00 29 1013.7
20260506213604 11 141 8.0 20.9 0.00 0.00 0.00 28 1013.7
20260506213404 11 148 4.8 20.9 0.00 0.00 0.00 30 1013.8
20260506213204 11 147 8.0 20.9 0.00 0.00 0.00 30 1013.7
20260506213004 11 144 12.9 20.9 0.00 0.00 0.00 28 1013.8
20260506212804 11 140 12.9 20.9 0.00 0.00 0.00 29 1013.9
20260506212625 11 134 12.9 20.9 0.00 0.00 0.00 30 1013.9
20260506212404 11 112 8.0 19.3 0.00 0.00 0.00 30 1013.9
20260506212204 11 100 8.0 19.3 0.00 0.00 0.00 29 1014.0
20260506212004 11 74 8.0 19.3 0.00 0.00 0.00 30 1013.9
20260506211803 10 68 11.3 19.3 0.00 0.00 0.00 29 1013.9
20260506211604 10 64 4.8 19.3 0.00 0.00 0.00 29 1014.0
20260506211404 10 67 1.6 19.3 0.00 0.00 0.00 30 1014.1
20260506211204 10 79 6.4 19.3 0.00 0.00 0.00 29 1014.2
20260506211004 10 90 14.5 20.9 0.00 0.00 0.00 29 1014.2
20260506210804 10 100 9.7 20.9 0.00 0.00 0.00 29 1014.3
20260506210604 10 124 4.8 20.9 0.00 0.00 0.00 29 1014.4
20260506210404 10 138 9.7 20.9 0.00 0.00 0.00 28 1014.5
20260506210204 11 142 9.7 20.9 0.00 0.00 0.00 28 1014.5
20260506210025 11 151 4.8 24.1 0.00 0.00 0.00 28 1014.5
20260506205804 11 150 8.0 24.1 0.00 0.00 0.00 27 1014.6
20260506205604 11 134 9.7 24.1 0.00 0.00 0.00 30 1014.5
20260506205404 11 122 8.0 24.1 0.00 0.00 0.00 29 1014.6
20260506205204 11 132 11.3 24.1 0.00 0.00 0.00 29 1014.6
20260506205004 11 141 4.8 14.5 0.00 0.00 0.00 30 1014.6
20260506204804 11 163 8.0 22.5 0.00 0.00 0.00 29 1014.6
20260506204625 11 166 4.8 22.5 0.00 0.00 0.00 30 1014.7
20260506204404 11 165 4.8 24.1 0.00 0.00 0.00 29 1014.7
20260506204204 11 161 8.0 24.1 0.00 0.00 0.00 30 1014.8
20260506204004 11 158 11.3 24.1 0.00 0.00 0.00 29 1014.7
20260506203804 11 152 16.1 27.4 0.00 0.00 0.00 29 1014.7
20260506203604 11 153 11.3 27.4 0.00 0.00 0.00 30 1014.6
20260506203424 11 154 9.7 27.4 0.00 0.00 0.00 28 1014.7
20260506203204 11 156 14.5 27.4 0.00 0.00 0.00 28 1014.6
20260506203004 11 165 17.7 27.4 0.00 0.00 0.00 29 1014.7
20260506202804 11 197 9.7 24.1 0.00 0.00 0.00 30 1014.8
20260506202604 11 208 3.2 20.9 0.00 0.00 0.00 27 1014.8
20260506202404 11 207 6.4 20.9 0.00 0.00 0.00 29 1014.9
20260506202204 11 207 8.0 20.9 0.00 0.00 0.00 27 1014.8
20260506202004 11 192 12.9 20.9 0.00 0.00 0.00 28 1015.0
20260506201803 11 166 14.5 20.9 0.00 0.00 0.00 29 1014.9
20260506201604 10 139 11.3 20.9 0.00 0.00 0.00 30 1014.9
20260506201404 10 117 8.0 25.7 0.00 0.00 0.00 31 1015.0
20260506201204 10 107 6.4 25.7 0.00 0.00 0.00 29 1015.0
20260506201003 10 107 8.0 25.7 0.00 0.00 0.00 29 1015.1
20260506200804 10 108 11.3 25.7 0.00 0.00 0.00 28 1015.0
20260506200604 10 111 12.9 25.7 0.00 0.00 0.00 30 1015.1
20260506200404 10 118 8.0 14.5 0.00 0.00 0.00 29 1015.1
20260506200204 10 111 6.4 12.9 0.00 0.00 0.00 30 1015.1
20260506200004 10 93 4.8 12.9 0.00 0.00 0.00 31 1015.2
20260506195825 10 81 3.2 12.9 0.00 0.00 0.00 29 1015.2
20260506195604 10 75 3.2 16.1 0.00 0.00 0.00 31 1015.3
20260506195403 10 75 6.4 20.9 0.00 0.00 0.00 29 1015.3
20260506195204 10 81 8.0 20.9 0.00 0.00 0.00 29 1015.3
20260506195024 10 86 9.7 20.9 0.00 0.00 0.00 28 1015.3
20260506194804 10 108 11.3 27.4 0.00 0.00 0.00 29 1015.4
20260506194604 10 116 11.3 27.4 0.00 0.00 0.00 29 1015.4
20260506194425 10 118 9.7 27.4 0.00 0.00 0.00 29 1015.3
20260506194204 10 119 3.2 27.4 0.00 0.00 0.00 28 1015.4
20260506194004 10 114 14.5 27.4 0.00 0.00 0.00 30 1015.5
20260506193804 10 102 11.3 25.7 0.00 0.00 0.00 30 1015.4
20260506193625 10 100 11.3 25.7 0.00 0.00 0.00 30 1015.4
20260506193404 10 112 9.7 25.7 0.00 0.00 0.00 31 1015.4
20260506193204 10 129 9.7 22.5 0.00 0.00 0.00 30 1015.4
20260506193004 10 145 9.7 22.5 0.00 0.00 0.00 30 1015.5
20260506192804 10 157 6.4 14.5 0.00 0.00 0.00 28 1015.5
20260506192604 10 157 6.4 14.5 0.00 0.00 0.00 30 1015.5
20260506192404 10 140 6.4 14.5 0.00 0.00 0.00 29 1015.6
20260506192204 10 114 9.7 14.5 0.00 0.00 0.00 31 1015.6
20260506192004 9 85 0.0 14.5 0.00 0.00 0.00 30 1015.6
20260506191825 9 79 3.2 14.5 0.00 0.00 0.00 30 1015.6
20260506191604 9 82 6.4 16.1 0.00 0.00 0.00 29 1015.6
20260506191403 9 88 6.4 16.1 0.00 0.00 0.00 30 1015.6
20260506191204 9 99 6.4 22.5 0.00 0.00 0.00 32 1015.6
20260506191003 9 106 9.7 22.5 0.00 0.00 0.00 30 1015.7
20260506190825 9 114 9.7 22.5 0.00 0.00 0.00 32 1015.7
20260506190604 9 120 9.7 22.5 0.00 0.00 0.00 28 1015.8
20260506190404 10 119 9.7 22.5 0.00 0.00 0.00 30 1015.7
20260506190225 10 111 9.7 20.9 0.00 0.00 0.00 30 1015.7
20260506190004 9 108 11.3 20.9 0.00 0.00 0.00 31 1015.7
20260506185825 9 109 11.3 20.9 0.00 0.00 0.00 30 1015.8
20260506185604 9 88 12.9 20.9 0.00 0.00 0.00 31 1015.8
20260506185403 9 76 9.7 20.9 0.00 0.00 0.00 30 1015.8
20260506185204 9 77 3.2 16.1 0.00 0.00 0.00 31 1015.9
20260506185003 9 85 4.8 16.1 0.00 0.00 0.00 30 1016.0
20260506184825 9 86 9.7 16.1 0.00 0.00 0.00 30 1016.0
20260506184625 9 107 9.7 16.1 0.00 0.00 0.00 30 1016.0
20260506184404 9 118 6.4 20.9 0.00 0.00 0.00 30 1016.0
20260506184204 9 115 9.7 20.9 0.00 0.00 0.00 30 1016.1
20260506184004 9 115 6.4 20.9 0.00 0.00 0.00 30 1016.1
20260506183804 9 107 11.3 20.9 0.00 0.00 0.00 31 1016.2
20260506183625 9 86 12.9 20.9 0.00 0.00 0.00 30 1016.1
20260506183403 9 69 8.0 20.9 0.00 0.00 0.00 30 1016.2
20260506183225 9 61 9.7 20.9 0.00 0.00 0.00 31 1016.2
20260506183004 8 46 6.4 20.9 0.00 0.00 0.00 29 1016.2
20260506182825 8 44 16.1 20.9 0.00 0.00 0.00 32 1016.4
20260506182604 8 34 8.0 16.1 0.00 0.00 0.00 32 1016.3
20260506182404 8 30 4.8 14.5 0.00 0.00 0.00 30 1016.4
20260506182204 8 39 8.0 20.9 0.00 0.00 0.00 30 1016.5
20260506182004 8 57 6.4 20.9 0.00 0.00 0.00 30 1016.4
20260506181804 8 70 6.4 20.9 0.00 0.00 0.00 29 1016.4
20260506181604 8 80 4.8 20.9 0.00 0.00 0.00 31 1016.5
20260506181403 8 79 11.3 20.9 0.00 0.00 0.00 30 1016.5
20260506181225 9 79 9.7 20.9 0.00 0.00 0.00 31 1016.5
20260506181004 9 69 12.9 20.9 0.00 0.00 0.00 32 1016.5
20260506180825 8 66 8.0 20.9 0.00 0.00 0.00 33 1016.7
20260506180604 8 68 9.7 20.9 0.00 0.00 0.00 31 1016.8
20260506180425 8 71 14.5 20.9 0.00 0.00 0.00 31 1016.8
20260506180204 8 78 14.5 20.9 0.00 0.00 0.00 30 1016.7
20260506180005 8 68 6.4 20.9 0.00 0.00 0.00 34 1016.9
20260506175804 8 48 8.0 22.5 0.00 0.00 0.00 32 1016.8
20260506175604 8 34 4.8 22.5 0.00 0.00 0.00 32 1016.9
20260506175403 7 28 3.2 22.5 0.00 0.00 0.00 31 1016.9
20260506175204 8 34 12.9 25.7 0.00 0.00 0.00 30 1017.0
20260506175004 8 37 12.9 25.7 0.00 0.00 0.00 31 1017.0
20260506174804 8 43 14.5 25.7 0.00 0.00 0.00 32 1017.0
20260506174604 8 46 8.0 25.7 0.00 0.00 0.00 30 1017.0
20260506174404 8 54 19.3 25.7 0.00 0.00 0.00 32 1017.0
20260506174204 8 67 9.7 22.5 0.00 0.00 0.00 32 1017.0
20260506174025 8 68 9.7 22.5 0.00 0.00 0.00 33 1017.1
20260506173804 8 66 11.3 22.5 0.00 0.00 0.00 32 1017.1
20260506173625 8 73 8.0 22.5 0.00 0.00 0.00 32 1017.0
20260506173403 8 72 12.9 22.5 0.00 0.00 0.00 32 1017.1
20260506173204 8 67 6.4 14.5 0.00 0.00 0.00 33 1017.1
20260506173024 7 60 6.4 14.5 0.00 0.00 0.00 33 1017.1
20260506172804 7 61 6.4 20.9 0.00 0.00 0.00 34 1017.2
20260506172604 7 59 4.8 24.1 0.00 0.00 0.00 32 1017.2
20260506172404 7 59 8.0 24.1 0.00 0.00 0.00 32 1017.3
20260506172204 7 57 11.3 25.7 0.00 0.00 0.00 32 1017.3
20260506172004 7 57 16.1 25.7 0.00 0.00 0.00 32 1017.3
20260506171803 7 56 16.1 25.7 0.00 0.00 0.00 32 1017.3
20260506171604 7 53 14.5 25.7 0.00 0.00 0.00 31 1017.3
20260506171403 7 44 17.7 25.7 0.00 0.00 0.00 33 1017.2
20260506171204 7 7 12.9 22.5 0.00 0.00 0.00 32 1017.3
20260506171003 7 312 14.5 22.5 0.00 0.00 0.00 34 1017.3
20260506170804 7 275 3.2 12.9 0.00 0.00 0.00 32 1017.4
20260506170625 7 266 6.4 16.1 0.00 0.00 0.00 33 1017.4
20260506170404 7 257 8.0 16.1 0.00 0.00 0.00 32 1017.5
20260506170204 7 246 6.4 16.1 0.00 0.00 0.00 31 1017.5
20260506170025 7 248 4.8 19.3 0.00 0.00 0.00 32 1017.5
20260506165804 7 254 4.8 19.3 0.00 0.00 0.00 33 1017.5
20260506165604 7 259 4.8 19.3 0.00 0.00 0.00 32 1017.5
20260506165424 7 275 6.4 19.3 0.00 0.00 0.00 32 1017.6
20260506165204 7 328 11.3 19.3 0.00 0.00 0.00 35 1017.6
20260506165025 7 22 11.3 14.5 0.00 0.00 0.00 35 1017.6
20260506164804 7 49 4.8 14.5 0.00 0.00 0.00 32 1017.6
20260506164604 7 45 6.4 14.5 0.00 0.00 0.00 34 1017.6
20260506164404 6 29 4.8 12.9 0.00 0.00 0.00 33 1017.6
20260506164204 6 9 4.8 12.9 0.00 0.00 0.00 33 1017.7
20260506164025 6 347 3.2 16.1 0.00 0.00 0.00 32 1017.7
20260506163825 6 332 1.6 16.1 0.00 0.00 0.00 34 1017.7
20260506163604 6 331 4.8 16.1 0.00 0.00 0.00 32 1017.7
20260506163404 6 319 3.2 16.1 0.00 0.00 0.00 34 1017.7
20260506163225 6 329 6.4 16.1 0.00 0.00 0.00 32 1017.7
20260506163004 6 347 6.4 22.5 0.00 0.00 0.00 36 1017.7
20260506162804 6 10 8.0 24.1 0.00 0.00 0.00 34 1017.8
20260506162604 6 23 6.4 24.1 0.00 0.00 0.00 34 1017.7
20260506162404 6 37 9.7 24.1 0.00 0.00 0.00 33 1017.7
20260506162204 6 39 12.9 24.1 0.00 0.00 0.00 34 1017.8
20260506162004 6 37 12.9 24.1 0.00 0.00 0.00 33 1017.8
20260506161825 6 30 11.3 24.1 0.00 0.00 0.00 34 1017.8
20260506161604 6 30 9.7 22.5 0.00 0.00 0.00 35 1017.8
20260506161425 6 27 9.7 22.5 0.00 0.00 0.00 35 1017.8
20260506161204 6 28 14.5 22.5 0.00 0.00 0.00 33 1017.8
20260506161003 6 34 16.1 22.5 0.00 0.00 0.00 35 1017.8
20260506160825 6 30 12.9 20.9 0.00 0.00 0.00 33 1017.9
20260506160604 6 14 8.0 16.1 0.00 0.00 0.00 34 1017.9
20260506160404 6 5 6.4 20.9 0.00 0.00 0.00 35 1017.9
20260506160203 6 6 6.4 27.4 0.00 0.00 0.00 35 1017.9